"Pseudo-MPEC" for M14TLHe

Created 2018 Apr 23 3:18:02 UT using Find_Orb

Click here for an explanation of pseudo-MPECs

 
 Astrometry: 
     M14TLHe  C2018 04 16B-AstrometryuIcji?je$TTXj],Pno6nn2bPiFAii(8Eb(eRbP1=C41
     M14TLHe  C2018 04 16*i-AO76DM^l9Fw)lLredacted;5j(ERdsee0^L;oiy^PA4g12oI%C41
     M14TLHe  C2018 04 16.ok;t=Qta3s9w*xIyGmx,Cste*,4Sevgh;_I5G\/:Ym8\l`NEOCPC41

Station data:
(C41) MASTER-II Observatory, Kislovodsk  (N43.741685 E42.661260)  Russia.

Orbital elements:  M14TLHe
   Perigee 2018 Apr 23.798572 +/- 49 TT = 19:09:56 (JD 2458232.298572)
Epoch 2018 Apr 17.0 TT = JDT 2458225.5                        AutoNEOCP
M 310.00093 +/- 58                  (J2000 equator)
n   7.35434924 +/- 0.694            Peri.  266.31486 +/- 100
a565250.132 +/- 7.32e+7             Node   107.96582 +/- 70
e   0.9699438 +/- 0.273             Incl.  103.87278 +/- 23
P  48.95d                  H 23.9   G  0.15   U 12.5  SR
q 16989.2677 +/- 4.59e+7    Q 0.00744336 +/- 11.6
From 3 observations 2018 Apr. 16 (20.4 min); mean residual 0".54
Residuals in arcseconds: 
180416 C41  .51+  .19+    180416 C41  1.0-  .38-    180416 C41  .51+  .19+    

Ephemerides (geocentric):
Date (UTC) HH   RA              Dec         delta   r     elong  mag " sig PA
---- -- -- --  ------------   ------------  ------ ------ -----  --- ---- ---
2018 04 23 03  20 35 43.671   +54 31 33.27  155173 1.0051  75.0 12.8  35d 134
2018 04 23 04  20 32 48.721   +53 32 49.53  147999 1.0051  75.5 12.7  36d 138
2018 04 23 05  20 29 44.887   +52 27 44.02  140645 1.0052  76.0 12.6  36d 139
2018 04 23 06  20 26 30.858   +51 15 01.25  133096 1.0052  76.6 12.4  37d 140
2018 04 23 07  20 23 04.989   +49 53 02.84  125332 1.0052  77.2 12.3  38d 141
2018 04 23 08  20 19 25.173   +48 19 37.76  117333 1.0053  78.0 12.1  38d 142
2018 04 23 09  20 15 28.642   +46 31 46.96  109071 1.0053  78.8 11.9  39d 143
2018 04 23 10  20 11 11.658   +44 25 18.14  100516 1.0053  79.8 11.7  41d 145
2018 04 23 11  20 06 28.978   +41 54 02.33   91630 1.0054  81.1 11.4  42d 146
2018 04 23 12  20 01 12.904   +38 48 34.50   82366 1.0054  82.6 11.1  44d 148
2018 04 23 13  19 55 11.439   +34 53 37.55   72668 1.0054  84.5 10.7  46d 150
2018 04 23 14  19 48 04.268   +29 42 26.02   62470 1.0055  87.1 10.3  50d 155
2018 04 23 15  19 39 12.651   +22 23 09.11   51704 1.0055  90.8  9.7  53d 157
2018 04 23 16  19 27 07.401   +11 00 16.37   40352 1.0056  96.4  9.0  58d 161
2018 04 23 17  19 06 58.241   -09 35 16.63   28736 1.0056 105.9  7.9  58d 160
2018 04 23 18  17 59 46.122   -53 34 53.02   19301 1.0056 118.4  6.6  40d 140
2018 04 23 19  08 27 25.352   -51 35 11.24   20457 1.0056 103.4  7.2  38d  46
2018 04 23 20  07 29 23.886   -13 13 03.22   30697 1.0055  84.5  8.9  50d  28
2018 04 23 21  07 11 23.324   +05 08 01.68   42336 1.0055  75.9 10.0  51d  26
2018 04 23 22  07 00 51.646   +15 37 05.77   53595 1.0055  71.5 10.7  50d  27
2018 04 23 23  06 53 21.427   +22 30 38.40   64261 1.0054  68.8 11.3  48d  28
2018 04 24 00  06 47 28.734   +27 27 55.67   74369 1.0054  67.1 11.7  47d  29
2018 04 24 01  06 42 36.941   +31 14 47.09   83990 1.0054  65.9 12.1  46d  30
2018 04 24 02  06 38 26.860   +34 15 20.70   93186 1.0054  65.0 12.3  45d  31
2018 04 24 03  06 34 47.197   +36 43 36.08  102014 1.0053  64.3 12.6  44d  31
2018 04 24 04  06 31 30.744   +38 48 16.46  110518 1.0053  63.8 12.8  43d  32
2018 04 24 05  06 28 32.611   +40 35 06.57  118733 1.0053  63.3 13.0  43d  33
2018 04 24 06  06 25 49.329   +42 08 03.86  126692 1.0053  62.9 13.2  42d  34
2018 04 24 07  06 23 18.345   +43 29 57.83  134419 1.0053  62.6 13.3  42d  34
2018 04 24 08  06 20 57.724   +44 42 53.17  141934 1.0053  62.4 13.4  41d  35
2018 04 24 09  06 18 45.962   +45 48 23.89  149258 1.0052  62.2 13.6  41d  36
2018 04 24 10  06 16 41.866   +46 47 42.42  156404 1.0052  62.0 13.7  40d  36
2018 04 24 11  06 14 44.475   +47 41 45.56  163386 1.0052  61.8 13.8  40d  37
2018 04 24 12  06 12 53.001   +48 31 18.62  170217 1.0052  61.6 13.9  40d  38
2018 04 24 13  06 11 06.790   +49 16 58.21  176906 1.0052  61.5 14.0  39d  38
2018 04 24 14  06 09 25.292   +49 59 14.31  183463 1.0052  61.4 14.1  39d  39
2018 04 24 15  06 07 48.042   +50 38 31.71  189896 1.0052  61.2 14.2  39d  39
2018 04 24 16  06 06 14.641   +51 15 11.15  196212 1.0051  61.1 14.2  39d  40
2018 04 24 17  06 04 44.745   +51 49 30.12  202418 1.0051  61.1 14.3  38d  40
2018 04 24 18  06 03 18.054   +52 21 43.47  208519 1.0051  61.0 14.4  38d  41
2018 04 24 19  06 01 54.308   +52 52 03.94  214522 1.0051  60.9 14.4  38d  41
2018 04 24 20  06 00 33.274   +53 20 42.50  220430 1.0051  60.8 14.5  38d  41
2018 04 24 21  05 59 14.750   +53 47 48.67  226249 1.0051  60.7 14.6  38d  42
2018 04 24 22  05 57 58.553   +54 13 30.76  231983 1.0051  60.7 14.6  38d  42
2018 04 24 23  05 56 44.521   +54 37 56.06  237634 1.0051  60.6 14.7  38d  42
2018 04 25 00  05 55 32.508   +55 01 10.98  243208 1.0051  60.6 14.7  37d  43
2018 04 25 01  05 54 22.383   +55 23 21.22  248706 1.0051  60.5 14.8  37d  43
2018 04 25 02  05 53 14.027   +55 44 31.83  254133 1.0051  60.4 14.8  37d  43